| time (UTC) | temp C | wind direction | speed KPH | gust KPH | rain 1hr cm | rain 24hr cm | rain mn cm | humidity % | barometer mb |
| 20260504220946 | 8 | 355 | 8.0 | 11.3 | 0.00 | 0.00 | 0.00 | 55 | 1018.6 |
| 20260504220442 | 8 | 324 | 11.3 | 14.5 | 0.00 | 0.00 | 0.00 | 52 | 1018.7 |
| 20260504215940 | 9 | 358 | 14.5 | 16.1 | 0.00 | 0.00 | 0.00 | 51 | 1018.6 |
| 20260504215436 | 9 | 7 | 17.7 | 22.5 | 0.00 | 0.00 | 0.00 | 50 | 1018.5 |
| 20260504214933 | 10 | 0 | 9.7 | 12.9 | 0.00 | 0.00 | 0.00 | 47 | 1018.6 |
| 20260504214429 | 10 | 6 | 9.7 | 11.3 | 0.00 | 0.00 | 0.00 | 47 | 1018.7 |
| 20260504213926 | 10 | 0 | 8.0 | 9.7 | 0.00 | 0.00 | 0.00 | 45 | 1018.7 |
| 20260504213422 | 10 | 7 | 11.3 | 12.9 | 0.00 | 0.00 | 0.00 | 46 | 1018.6 |
| 20260504212920 | 10 | 12 | 11.3 | 12.9 | 0.00 | 0.00 | 0.00 | 46 | 1018.4 |
| 20260504212415 | 10 | 29 | 8.0 | 12.9 | 0.00 | 0.00 | 0.00 | 44 | 1018.6 |
| 20260504211914 | 9 | 12 | 11.3 | 12.9 | 0.00 | 0.00 | 0.00 | 45 | 1018.6 |
| 20260504211409 | 9 | 352 | 9.7 | 14.5 | 0.00 | 0.00 | 0.00 | 45 | 1018.7 |
| 20260504210907 | 8 | 3 | 6.4 | 8.0 | 0.00 | 0.00 | 0.00 | 47 | 1018.9 |
| 20260504210404 | 8 | 327 | 12.9 | 20.9 | 0.00 | 0.00 | 0.00 | 47 | 1018.9 |
| 20260504205901 | 10 | 350 | 16.1 | 20.9 | 0.00 | 0.00 | 0.00 | 47 | 1018.9 |
| 20260504205359 | 9 | 0 | 16.1 | 20.9 | 0.00 | 0.00 | 0.00 | 46 | 1018.9 |
| 20260504204857 | 8 | 358 | 29.0 | 40.2 | 0.00 | 0.00 | 0.00 | 47 | 1019.0 |
| 20260504204355 | 9 | 343 | 29.0 | 43.5 | 0.00 | 0.00 | 0.00 | 45 | 1019.0 |
| 20260504203854 | 9 | 3 | 17.7 | 25.7 | 0.00 | 0.00 | 0.00 | 45 | 1019.0 |
| 20260504203350 | 9 | 327 | 14.5 | 17.7 | 0.00 | 0.00 | 0.00 | 46 | 1019.0 |
| 20260504202846 | 9 | 334 | 8.0 | 11.3 | 0.00 | 0.00 | 0.00 | 46 | 1019.1 |
| 20260504202344 | 10 | 337 | 17.7 | 24.1 | 0.00 | 0.00 | 0.00 | 45 | 1019.0 |
| 20260504201840 | 10 | 338 | 24.1 | 29.0 | 0.00 | 0.00 | 0.00 | 45 | 1018.9 |
| 20260504201337 | 10 | 12 | 20.9 | 27.4 | 0.00 | 0.00 | 0.00 | 44 | 1018.9 |
| 20260504200834 | 10 | 51 | 11.3 | 16.1 | 0.00 | 0.00 | 0.00 | 45 | 1019.0 |
| 20260504200331 | 10 | 354 | 17.7 | 20.9 | 0.00 | 0.00 | 0.00 | 44 | 1019.1 |
| 20260504195827 | 10 | 37 | 16.1 | 24.1 | 0.00 | 0.00 | 0.00 | 44 | 1018.9 |
| 20260504195323 | 11 | 12 | 19.3 | 22.5 | 0.00 | 0.00 | 0.00 | 42 | 1019.0 |
| 20260504194820 | 11 | 18 | 16.1 | 22.5 | 0.00 | 0.00 | 0.00 | 42 | 1018.8 |
| 20260504194316 | 10 | 17 | 12.9 | 17.7 | 0.00 | 0.00 | 0.00 | 44 | 1019.0 |
| 20260504193812 | 10 | 2 | 19.3 | 24.1 | 0.00 | 0.00 | 0.00 | 43 | 1018.8 |
| 20260504193310 | 10 | 2 | 16.1 | 17.7 | 0.00 | 0.00 | 0.00 | 41 | 1019.0 |
| 20260504192808 | 10 | 8 | 22.5 | 29.0 | 0.00 | 0.00 | 0.00 | 41 | 1019.3 |
| 20260504192306 | 10 | 352 | 19.3 | 25.7 | 0.00 | 0.00 | 0.00 | 43 | 1018.8 |
| 20260504191804 | 11 | 346 | 9.7 | 12.9 | 0.00 | 0.00 | 0.00 | 45 | 1018.9 |
| 20260504191301 | 10 | 5 | 16.1 | 17.7 | 0.00 | 0.00 | 0.00 | 47 | 1019.0 |
| 20260504190757 | 10 | 5 | 16.1 | 25.7 | 0.00 | 0.00 | 0.00 | 48 | 1019.1 |
| 20260504190253 | 10 | 335 | 8.0 | 9.7 | 0.00 | 0.00 | 0.00 | 49 | 1019.0 |
| 20260504185750 | 10 | 2 | 11.3 | 14.5 | 0.00 | 0.00 | 0.00 | 51 | 1019.4 |
| 20260504185247 | 10 | 324 | 14.5 | 17.7 | 0.00 | 0.00 | 0.00 | 51 | 1019.1 |
| 20260504184743 | 10 | 15 | 8.0 | 9.7 | 0.00 | 0.00 | 0.00 | 51 | 1019.0 |
| 20260504184239 | 10 | 22 | 12.9 | 14.5 | 0.00 | 0.00 | 0.00 | 50 | 1018.8 |
| 20260504183735 | 10 | 337 | 14.5 | 17.7 | 0.00 | 0.00 | 0.00 | 49 | 1019.1 |
| 20260504183232 | 10 | 347 | 22.5 | 32.2 | 0.00 | 0.00 | 0.00 | 49 | 1019.1 |
| 20260504182730 | 10 | 11 | 12.9 | 14.5 | 0.00 | 0.00 | 0.00 | 52 | 1019.0 |
| 20260504182227 | 10 | 355 | 19.3 | 22.5 | 0.00 | 0.00 | 0.00 | 51 | 1019.3 |
| 20260504181724 | 10 | 7 | 12.9 | 16.1 | 0.00 | 0.00 | 0.00 | 50 | 1019.0 |
| 20260504181221 | 10 | 356 | 11.3 | 14.5 | 0.00 | 0.00 | 0.00 | 51 | 1018.9 |
| 20260504180720 | 10 | 15 | 8.0 | 11.3 | 0.00 | 0.00 | 0.00 | 51 | 1019.0 |
| 20260504180219 | 11 | 356 | 22.5 | 41.8 | 0.00 | 0.00 | 0.00 | 50 | 1019.3 |
| 20260504175716 | 11 | 347 | 12.9 | 17.7 | 0.00 | 0.00 | 0.00 | 49 | 1019.3 |
| 20260504175212 | 10 | 352 | 17.7 | 20.9 | 0.00 | 0.00 | 0.00 | 52 | 1019.0 |
| 20260504174711 | 10 | 356 | 14.5 | 17.7 | 0.00 | 0.00 | 0.00 | 51 | 1019.4 |
| 20260504174208 | 10 | 320 | 16.1 | 17.7 | 0.00 | 0.00 | 0.00 | 52 | 1019.4 |
| 20260504173705 | 10 | 293 | 8.0 | 11.3 | 0.00 | 0.00 | 0.00 | 52 | 1019.3 |
| 20260504173202 | 10 | 29 | 14.5 | 16.1 | 0.00 | 0.00 | 0.00 | 51 | 1019.4 |
| 20260504172658 | 9 | 11 | 11.3 | 11.3 | 0.00 | 0.00 | 0.00 | 53 | 1019.4 |
| 20260504172155 | 10 | 359 | 11.3 | 16.1 | 0.00 | 0.00 | 0.00 | 54 | 1019.3 |
| 20260504171651 | 10 | 0 | 9.7 | 12.9 | 0.00 | 0.00 | 0.00 | 52 | 1019.5 |
| 20260504171148 | 9 | 48 | 11.3 | 20.9 | 0.00 | 0.00 | 0.00 | 53 | 1019.3 |
| 20260504170645 | 9 | 353 | 17.7 | 24.1 | 0.00 | 0.00 | 0.00 | 53 | 1019.3 |
| 20260504170142 | 9 | 355 | 9.7 | 14.5 | 0.00 | 0.00 | 0.00 | 53 | 1019.4 |
| 20260504151028 | 8 | 352 | 22.5 | 29.0 | 0.00 | 0.00 | 0.00 | 55 | 1018.7 |
| 20260504150525 | 8 | 355 | 19.3 | 22.5 | 0.00 | 0.00 | 0.00 | 55 | 1018.8 |
| 20260504140951 | 7 | 5 | 14.5 | 16.1 | 0.00 | 0.00 | 0.00 | 62 | 1018.5 |
| 20260504140447 | 7 | 7 | 14.5 | 16.1 | 0.00 | 0.00 | 0.00 | 63 | 1018.5 |
| 20260504130412 | 6 | 8 | 12.9 | 16.1 | 0.00 | 0.00 | 0.00 | 68 | 1016.9 |
| 20260504110259 | 0 | 67 | 3.2 | 3.2 | 0.00 | 0.00 | 0.00 | 81 | 1014.4 |
| 20260504100217 | 0 | 204 | 3.2 | 3.2 | 0.00 | 0.00 | 0.00 | 83 | 1013.7 |
| 20260504090140 | -1 | 84 | 0.0 | 0.0 | 0.00 | 0.00 | 0.00 | 82 | 1014.2 |
| 20260504081610 | 0 | 184 | 4.8 | 4.8 | 0.00 | 0.00 | 0.00 | 79 | 1013.8 |
| 20260504081106 | 0 | 77 | 3.2 | 3.2 | 0.00 | 0.00 | 0.00 | 78 | 1013.9 |
| 20260504080603 | 0 | 121 | 0.0 | 0.0 | 0.00 | 0.00 | 0.00 | 78 | 1013.8 |
| 20260504050415 | 3 | 244 | 1.6 | 1.6 | 0.00 | 0.00 | 0.00 | 64 | 1014.3 |
| 20260504045912 | 3 | 245 | 0.0 | 1.6 | 0.00 | 0.00 | 0.00 | 62 | 1014.4 |
| 20260504045408 | 4 | 245 | 1.6 | 1.6 | 0.00 | 0.00 | 0.00 | 59 | 1014.7 |
| 20260504044904 | 5 | 245 | 1.6 | 1.6 | 0.00 | 0.00 | 0.00 | 56 | 1014.7 |
| 20260504044402 | 5 | 246 | 1.6 | 1.6 | 0.00 | 0.00 | 0.00 | 55 | 1014.6 |
| 20260504043859 | 5 | 245 | 3.2 | 3.2 | 0.00 | 0.00 | 0.00 | 57 | 1014.5 |
| 20260504043356 | 5 | 245 | 4.8 | 4.8 | 0.00 | 0.00 | 0.00 | 56 | 1014.6 |
| 20260504042854 | 3 | 246 | 3.2 | 3.2 | 0.00 | 0.00 | 0.00 | 59 | 1014.7 |
| 20260504042349 | 3 | 244 | 1.6 | 3.2 | 0.00 | 0.00 | 0.00 | 62 | 1014.7 |
| 20260504041846 | 3 | 244 | 8.0 | 8.0 | 0.00 | 0.00 | 0.00 | 63 | 1014.7 |
| 20260504041342 | 4 | 56 | 0.0 | 0.0 | 0.00 | 0.00 | 0.00 | 60 | 1014.6 |
| 20260504040838 | 4 | 65 | 0.0 | 1.6 | 0.00 | 0.00 | 0.00 | 58 | 1014.7 |
| 20260504040336 | 5 | 61 | 0.0 | 0.0 | 0.00 | 0.00 | 0.00 | 56 | 1014.9 |
| 20260504035832 | 6 | 51 | 1.6 | 1.6 | 0.00 | 0.00 | 0.00 | 52 | 1015.1 |
| 20260504035330 | 6 | 64 | 3.2 | 3.2 | 0.00 | 0.00 | 0.00 | 53 | 1015.1 |
| 20260504034827 | 5 | 64 | 0.0 | 1.6 | 0.00 | 0.00 | 0.00 | 50 | 1015.2 |
| 20260504034325 | 5 | 79 | 0.0 | 0.0 | 0.00 | 0.00 | 0.00 | 52 | 1015.1 |
| 20260504033821 | 6 | 101 | 1.6 | 1.6 | 0.00 | 0.00 | 0.00 | 49 | 1014.7 |
| 20260504033319 | 7 | 131 | 1.6 | 1.6 | 0.00 | 0.00 | 0.00 | 48 | 1015.2 |
| 20260504032815 | 7 | 126 | 3.2 | 3.2 | 0.00 | 0.00 | 0.00 | 47 | 1014.9 |
| 20260504032313 | 7 | 116 | 1.6 | 1.6 | 0.00 | 0.00 | 0.00 | 46 | 1014.9 |
| 20260504031809 | 7 | 86 | 0.0 | 0.0 | 0.00 | 0.00 | 0.00 | 47 | 1014.6 |
| 20260504031307 | 6 | 88 | 0.0 | 0.0 | 0.00 | 0.00 | 0.00 | 48 | 1015.1 |
| 20260504030803 | 7 | 107 | 0.0 | 0.0 | 0.00 | 0.00 | 0.00 | 49 | 1014.8 |
| 20260504030300 | 7 | 97 | 0.0 | 0.0 | 0.00 | 0.00 | 0.00 | 49 | 1014.7 |
| 20260504025756 | 7 | 88 | 0.0 | 0.0 | 0.00 | 0.00 | 0.00 | 47 | 1014.8 |
| 20260504025253 | 7 | 78 | 0.0 | 0.0 | 0.00 | 0.00 | 0.00 | 47 | 1014.7 |
| 20260504024750 | 7 | 97 | 0.0 | 0.0 | 0.00 | 0.00 | 0.00 | 49 | 1014.6 |
| 20260504024247 | 7 | 93 | 1.6 | 1.6 | 0.00 | 0.00 | 0.00 | 49 | 1014.5 |
| 20260504023744 | 8 | 109 | 1.6 | 3.2 | 0.00 | 0.00 | 0.00 | 47 | 1014.6 |
| 20260504023240 | 10 | 265 | 1.6 | 1.6 | 0.00 | 0.00 | 0.00 | 44 | 1014.5 |
| 20260504022736 | 12 | 269 | 1.6 | 1.6 | 0.00 | 0.00 | 0.00 | 39 | 1014.5 |
| 20260504022232 | 13 | 8 | 3.2 | 3.2 | 0.00 | 0.00 | 0.00 | 34 | 1014.0 |
| 20260504021729 | 13 | 335 | 0.0 | 1.6 | 0.00 | 0.00 | 0.00 | 34 | 1014.3 |
| 20260504021226 | 13 | 332 | 0.0 | 0.0 | 0.00 | 0.00 | 0.00 | 34 | 1014.3 |
| 20260504020723 | 14 | 314 | 4.8 | 4.8 | 0.00 | 0.00 | 0.00 | 33 | 1014.4 |
| 20260504020220 | 15 | 307 | 3.2 | 3.2 | 0.00 | 0.00 | 0.00 | 32 | 1014.3 |
| 20260504015716 | 15 | 316 | 3.2 | 3.2 | 0.00 | 0.00 | 0.00 | 32 | 1014.4 |
| 20260504015213 | 16 | 292 | 4.8 | 4.8 | 0.00 | 0.00 | 0.00 | 30 | 1014.3 |
| 20260504014708 | 17 | 300 | 4.8 | 4.8 | 0.00 | 0.00 | 0.00 | 29 | 1014.4 |
| 20260504014205 | 17 | 330 | 4.8 | 4.8 | 0.00 | 0.00 | 0.00 | 28 | 1014.5 |
| 20260504013703 | 17 | 315 | 4.8 | 4.8 | 0.00 | 0.00 | 0.00 | 27 | 1014.4 |
| 20260504013200 | 18 | 297 | 6.4 | 8.0 | 0.00 | 0.00 | 0.00 | 27 | 1014.4 |
| 20260504012656 | 19 | 313 | 4.8 | 4.8 | 0.00 | 0.00 | 0.00 | 26 | 1014.5 |
| 20260504012155 | 19 | 18 | 1.6 | 1.6 | 0.00 | 0.00 | 0.00 | 25 | 1014.3 |
| 20260504011652 | 19 | 13 | 1.6 | 1.6 | 0.00 | 0.00 | 0.00 | 25 | 1014.6 |
| 20260504011148 | 19 | 268 | 1.6 | 3.2 | 0.00 | 0.00 | 0.00 | 25 | 1014.5 |
| 20260504010644 | 20 | 338 | 1.6 | 3.2 | 0.00 | 0.00 | 0.00 | 25 | 1014.7 |
| 20260504010139 | 20 | 306 | 8.0 | 9.7 | 0.00 | 0.00 | 0.00 | 25 | 1015.1 |
| 20260504005637 | 20 | 357 | 6.4 | 8.0 | 0.00 | 0.00 | 0.00 | 24 | 1015.2 |
| 20260504005133 | 20 | 299 | 8.0 | 11.3 | 0.00 | 0.00 | 0.00 | 25 | 1014.9 |
| 20260504004632 | 20 | 317 | 3.2 | 3.2 | 0.00 | 0.00 | 0.00 | 26 | 1014.8 |
| 20260504004129 | 20 | 343 | 1.6 | 1.6 | 0.00 | 0.00 | 0.00 | 26 | 1015.1 |
| 20260504003625 | 20 | 282 | 6.4 | 9.7 | 0.00 | 0.00 | 0.00 | 25 | 1015.4 |
| 20260504003121 | 20 | 292 | 4.8 | 4.8 | 0.00 | 0.00 | 0.00 | 25 | 1015.3 |
| 20260504002618 | 20 | 344 | 16.1 | 22.5 | 0.00 | 0.00 | 0.00 | 25 | 1014.9 |
| 20260504002116 | 20 | 344 | 11.3 | 12.9 | 0.00 | 0.00 | 0.00 | 26 | 1015.1 |
| 20260504001614 | 20 | 347 | 8.0 | 9.7 | 0.00 | 0.00 | 0.00 | 27 | 1014.9 |
| 20260504001109 | 20 | 291 | 14.5 | 17.7 | 0.00 | 0.00 | 0.00 | 27 | 1015.1 |
| 20260504000607 | 19 | 358 | 4.8 | 4.8 | 0.00 | 0.00 | 0.00 | 29 | 1015.3 |
| 20260504000104 | 20 | 6 | 3.2 | 4.8 | 0.00 | 0.00 | 0.00 | 28 | 1015.3 |
| 20260503235602 | 21 | 303 | 3.2 | 3.2 | 0.00 | 0.00 | 0.00 | 27 | 1015.5 |
| 20260503235059 | 21 | 354 | 9.7 | 9.7 | 0.00 | 0.00 | 0.00 | 28 | 1015.2 |
| 20260503234556 | 21 | 256 | 1.6 | 3.2 | 0.00 | 0.00 | 0.00 | 27 | 1015.3 |
| 20260503234054 | 21 | 272 | 4.8 | 8.0 | 0.00 | 0.00 | 0.00 | 27 | 1015.3 |
| 20260503233551 | 21 | 344 | 6.4 | 8.0 | 0.00 | 0.00 | 0.00 | 27 | 1015.4 |
| 20260503233047 | 20 | 352 | 9.7 | 11.3 | 0.00 | 0.00 | 0.00 | 27 | 1015.3 |
| 20260503232544 | 20 | 10 | 8.0 | 11.3 | 0.00 | 0.00 | 0.00 | 29 | 1015.6 |
| 20260503232041 | 20 | 339 | 6.4 | 8.0 | 0.00 | 0.00 | 0.00 | 26 | 1015.5 |
| 20260503231539 | 20 | 349 | 6.4 | 8.0 | 0.00 | 0.00 | 0.00 | 27 | 1015.6 |
| 20260503231035 | 20 | 3 | 6.4 | 8.0 | 0.00 | 0.00 | 0.00 | 27 | 1015.6 |
| 20260503230532 | 19 | 344 | 8.0 | 9.7 | 0.00 | 0.00 | 0.00 | 27 | 1015.3 |
| 20260503230030 | 20 | 8 | 6.4 | 8.0 | 0.00 | 0.00 | 0.00 | 27 | 1015.6 |
| 20260503225526 | 21 | 317 | 1.6 | 1.6 | 0.00 | 0.00 | 0.00 | 26 | 1015.9 |
| 20260503225021 | 21 | 5 | 8.0 | 11.3 | 0.00 | 0.00 | 0.00 | 27 | 1015.6 |
| 20260503224520 | 21 | 335 | 11.3 | 12.9 | 0.00 | 0.00 | 0.00 | 25 | 1015.7 |
| 20260503224017 | 20 | 293 | 6.4 | 9.7 | 0.00 | 0.00 | 0.00 | 26 | 1015.6 |
| 20260503223515 | 19 | 299 | 12.9 | 16.1 | 0.00 | 0.00 | 0.00 | 28 | 1015.9 |
| 20260503223010 | 20 | 3 | 8.0 | 11.3 | 0.00 | 0.00 | 0.00 | 28 | 1015.9 |
| 20260503222509 | 21 | 341 | 8.0 | 11.3 | 0.00 | 0.00 | 0.00 | 26 | 1016.1 |
| 20260503222006 | 20 | 339 | 8.0 | 9.7 | 0.00 | 0.00 | 0.00 | 28 | 1015.9 |
| 20260503221504 | 20 | 342 | 14.5 | 16.1 | 0.00 | 0.00 | 0.00 | 27 | 1015.7 |